STARLINK-1617 (46350 NORAD) Tracking and Keplerian Element Data

This shows tracking and keplerian element data for the satellite.

Feedback or suggestion? Click here.




ElementValue
Catalog46350
NameSTARLINK-1617
Epoch Orbit178
Epoch Day268.91668981
Epoch Year2020
RAAN324.5502
Inclination53.0009
Eccentricity0.0001172
Argument of Perigee59.7254
Mean Anonmoly125.0123
Mean Motion15.6274741
Decay Rate0.00024801
L11 46350U 20062AB 20268.91668981 .00024801 00000-0 27591-3 0 9996
L22 46350 53.0009 324.5502 0001172 59.7254 125.0123 15.62747410 1788

Live tracking and technical data element details for STARLINK-1617 (NORAD 46350). STARLINK-1617 can be tracked NOW for your location showing map with azimuth and elevation plus other details from your city location.

Track the satellite on the map from your city or location and see movement details for azimuth, elevation, latitude, longitude, range, height, and movement on the map or in text.







IsCatalogInMostPopularTable: catalog: 46350, numindb: 1
Update: records affected: 1



GetName: 46350 STARLINK-1617

Hit Count: updated at: Mon, 28 Sep 2020 14:29:29 GMT